Tracking 31027 objects as of 19-Jul-2025
HD Live streaming from Space Station
objects crossing your sky now

CENTISPACE-1 S12

Track CENTISPACE-1 S12 now!
10-day predictions


NORAD ID: 62581
Int'l Code: 2025-007G
Perigee: 670.5 km
Apogee: 684.0 km
Inclination: 55.0 °
Period: 98.1 minutes
Semi major axis: 7048 km
RCS: Unknown
Launch date: January 13, 2025
Source: People's Republic of China (PRC)
Launch site: Yellow Sea Launch Area, China (YSLA)
Your satellite tracking list
ATLAS 2A CENTAUR R/B
Track 1 satellite(s)




NASA's NSSDC Master Catalog

Two Line Element Set (TLE):
1 62581U 25007G   25199.80676538  .00000622  00000-0  14419-3 0  9997
2 62581  54.9781  85.8369 0009537 297.9075  62.0954 14.67167904 27561
Source of the keplerian elements: AFSPC